{"data":{"norad_id":67918,"intl_designator":"2026-036Q","name":"STARLINK-36341","alt_names":[],"object_type":"PAYLOAD","status":"ACTIVE","operator":null,"country":"US","launch_date":"2026-02-22","launch_site_code":"AFETR","launch_vehicle":null,"mission":null,"orbit_class":"UNKNOWN","rcs_meters":null,"size_class":null,"mass_kg":null,"dimensions":null,"purposes":["comms"],"wikipedia_slug":null,"has_3d_model":false,"image_url":null,"decayed_at":null,"tle_current":{"epoch":"2026-09-19T22:18:19.867104Z","epoch_age_seconds":112552,"freshness":"FRESH","line1":"1 67918U 26036Q   26262.92939661  .00016153  00000+0  59506-3 0  9994","line2":"2 67918  42.9965 228.7362 0001136 266.1194  93.9528 15.27588621 33421","mean_motion":15.27588621,"eccentricity":0.0001136,"inclination_deg":42.9965,"raan_deg":228.7362,"arg_perigee_deg":266.1194,"mean_anomaly_deg":93.9528,"bstar":0.00059506,"rev_number":3342,"period_min":94.266216715947,"perigee_km":482.24385397766,"apogee_km":483.80270959368,"semimajor_km":6861.1602817857,"source":"CELESTRAK","updated_at":"2026-09-20T09:00:43.703797Z"}}}